Hourly Data Report for April 02, 2020

TORONTO CITY
ONTARIO
Current Station Operator: ECCC - MSC

43°40'00.000" N
79°24'00.000" W
112.50 m
6158355
71508
XTO

Download Data

Hourly Data (April 2020)
Hourly Data Report for April 2, 2020
TIME
LST
Temp Definition
°C
Dew Point Definition
°C
Rel Hum Definition
%
Precip. Amount Definition
mm

Wind Dir Definition
10's deg

Wind Spd Definition
km/h
Visibility Definition
km
Stn Press Definition
kPa
Hmdx Definition


Wind Chill Definition


Weather Definition


00:00 6.2 -6.8 39 0.0       100.07     LegendNANA
01:00 5.8 -5.7 44 0.0       100.05     LegendNANA
02:00 5.8 -5.8 43 0.0       100.05     LegendNANA
03:00 5.8 -5.4 45 0.0       100.06     LegendNANA
04:00 5.2 -4.5 50 0.0       100.09     LegendNANA
05:00 4.3 -3.7 56 0.0       100.13     LegendNANA
06:00 3.6 -3.2 61 0.0       100.20     LegendNANA
07:00 4.4 -2.9 59 0.0       100.26     LegendNANA
08:00 6.3 -3.9 48 0.0       100.29     LegendNANA
09:00 8.2 -3.3 44 0.0       100.32     LegendNANA
10:00 10.3 -4.3 35 0.0       100.29     LegendNANA
11:00 11.4 -4.9 31 0.0       100.26     LegendNANA
12:00 12.3 -4.8 30 0.0       100.21     LegendNANA
13:00 13.2 -6.7 24 0.2       100.15     LegendNANA
14:00 13.3 -10.2 19 0.3       100.08     LegendNANA
15:00 13.2 -12.9 15 0.2       100.05     LegendNANA
16:00 12.6 -14.6 14 0.4       100.03     LegendNANA
17:00 11.4 -16.3 13 0.0       100.03     LegendNANA
18:00 10.4 -11.2 21 0.0       100.08     LegendNANA
19:00 9.1 -9.4 26 0.0       100.10     LegendNANA
20:00 8.7 -9.1 27 0.0       100.15     LegendNANA
21:00 8.2 -8.4 30 0.0       100.16     LegendNANA
22:00 7.6 -8.5 31 0.0       100.16     LegendNANA
23:00 7.0 -8.5 32 0.0       100.16     LegendNANA

Notes on Data Quality.

Legend

  • E = Estimated
  • M = Missing
  • NA = Not Available*
  • [empty] = Indicates an unobserved value
Date modified: